This demonstration page uses our WeatherBlox Daily Observations layout. Learn more.

Left ArrowRight Arrow

36.19886, -115.1175

Hourly Observations for January 26, 2022

Temp ( °F °C ) Dew Point ( °F °C ) Humidity (%) Winds ( mph kmh ) Pressure ( in mb ) Visibility ( mi km ) Precip ( " mm )
12:53 am 00:53 Clear 46 7.8 17 -8.3 31 31 NE 5 7 30.27 1025 10 16 0.00 0.00
1:53 am 01:53 Clear 44 6.7 17 -8.3 34 34 W 5 7 30.27 1025 10 16 0.00 0.00
2:53 am 02:53 Clear 43 6.1 17 -8.3 35 35 N 8 13 30.27 1025 10 16 0.00 0.00
3:53 am 03:53 Clear 41 5 17 -8.3 38 38 Calm 30.29 1026 10 16 0.00 0.00
4:53 am 04:53 Clear 41 5 17 -8.3 38 38 NNW 7 11 30.30 1026 10 16 0.00 0.00
5:53 am 05:53 Clear 40 4.4 16 -8.9 38 38 NNW 6 9 30.32 1027 10 16 0.00 0.00
6:53 am 06:53 Sunny 38 3.3 16 -8.9 41 41 W 6 9 30.35 1028 10 16 0.00 0.00
7:53 am 07:53 Sunny 41 5 16 -8.9 36 36 SSW 5 7 30.35 1028 10 16 0.00 0.00
8:53 am 08:53 Sunny 47 8.3 16 -8.9 29 29 Calm 30.35 1028 10 16 0.00 0.00
9:53 am 09:53 Sunny 49 9.4 16 -8.9 27 27 E 3 6 30.36 1028 10 16 0.00 0.00
10:53 am 10:53 Sunny 52 11.1 16 -8.9 24 24 ESE 3 6 30.33 1027 10 16 0.00 0.00
11:53 am 11:53 Sunny 53 11.7 15 -9.4 22 22 undefined N/A 30.29 1026 10 16 0.00 0.00
12:53 pm 12:53 Sunny 54 12.2 15 -9.4 21 21 N 3 6 30.26 1025 10 16 0.00 0.00
1:53 pm 13:53 Sunny 55 12.8 15 -9.4 20 20 Calm 30.24 1024 10 16 0.00 0.00
2:53 pm 14:53 Sunny 57 13.9 15 -9.4 19 19 NNE 5 7 30.23 1024 10 16 0.00 0.00
3:53 pm 15:53 Sunny 56 13.3 15 -9.4 20 20 Calm 30.22 1024 10 16 0.00 0.00
4:53 pm 16:53 Sunny 55 12.8 14 -10 20 20 Calm 30.22 1023 10 16 0.00 0.00
5:53 pm 17:53 Clear 53 11.7 15 -9.4 22 22 S 3 6 30.24 1024 10 16 0.00 0.00
6:53 pm 18:53 Clear 50 10 15 -9.4 25 25 W 5 7 30.26 1025 10 16 0.00 0.00
7:53 pm 19:53 Clear 46 7.8 17 -8.3 31 31 NW 6 9 30.26 1025 10 16 0.00 0.00
8:53 pm 20:53 Clear 43 6.1 16 -8.9 34 34 NW 7 11 30.27 1025 10 16 0.00 0.00
9:53 pm 21:53 Clear 44 6.7 13 -10.6 28 28 NW 9 15 30.27 1025 10 16 0.00 0.00
10:53 pm 22:53 Clear 48 8.9 10 -12.2 21 21 NNW 8 13 30.27 1025 10 16 0.00 0.00
11:53 pm 23:53 Clear 46 7.8 9 -12.8 22 22 N 6 9 30.26 1025 10 16 0.00 0.00

Powered by AerisWeather